Search your local weather  

 
Advertise Here

Hazardous Weather Conditions

No active alerts for SAN ANTONIO, TEXAS

Current Conditions: SAN ANTONIO, TEXAS

Fair


43.0 F

Last Updated on Mar 6 2021, 9:55 pm CST
Humidity: 76%
Wind Speed: N 0.0 mph
Barometer 30.28 in
Dewpoint: 35.6 F
Visibility: 10.00 mi
Precip: --
Heat Index: NA
Wind Chill: NA
Current conditions at:

San Antonio Boerne Stage Field, TX (K5C1)

Lat: 29.7239 Lon: -98.6946

Local Radar Image active severe weather and emergency alerts image image weather storm and storm spotter reports image weather observation monitoring service image
Local
Radar
Active
Alerts
Storm Reports Weather
Monitoring

Sign-up For Email & Text Message Weather Alert Notification Services


Advertise Here

Observation History for SAN ANTONIO, TEXAS


Time Wind
(mph)
Vis
(mi)
Weather Precip (in) Temperature (F) Relative
Humidity
Wind
Chill
(F)
Heat
Index
(F)
Pressure
Air Dwpt altimeter
(in)
sea level
(mb)
9:55 pm CST N 0.0 10.00 Fair -- 43.0 35.6 76% NA NA 30.28 M
8:55 pm CST N 0.0 10.00 Fair -- 48.0 37.4 66% NA NA 30.27 M
8:35 pm CST N 0.0 10.00 Fair -- 52.0 37.4 58% NA NA 30.25 M
7:55 pm CST E 3.5 10.00 Fair -- 54.0 37.4 54% NA NA 30.25 M
7:35 pm CST E 3.5 10.00 Fair -- 55.0 37.4 51% NA NA 30.24 M
6:55 pm CST E 3.5 10.00 Fair -- 57.0 35.6 44% NA NA 30.22 M
5:55 pm CST NE 9.2 10.00 Fair -- 61.0 35.6 39% 60 NA 30.21 M
5:35 pm CST E 3.5 10.00 Fair -- 61.0 35.6 39% NA NA 30.21 M
4:55 pm CST E 9.2 10.00 Fair -- 63.0 37.4 39% 62 NA 30.21 M
3:55 pm CST E 9.2 10.00 Mostly Cloudy -- 63.0 37.4 39% 62 NA 30.22 M
3:35 pm CST E 9.2 10.00 Mostly Cloudy -- 63.0 37.4 39% 62 NA 30.22 M
2:55 pm CST NE 9.2 10.00 Mostly Cloudy -- 61.0 37.4 42% 60 NA 30.23 M
2:35 pm CST NE 8.1 10.00 Overcast -- 61.0 37.4 42% 60 NA 30.24 M
1:55 pm CST E 4.6 10.00 Mostly Cloudy -- 59.0 37.4 45% 59 NA 30.25 M
12:55 pm CST NE 9.2 10.00 Overcast -- 61.0 39.2 45% 60 NA 30.28 M
11:55 am CST NE 6.9 10.00 Fair -- 61.0 41.0 48% 60 NA 30.30 M
10:55 am CST N 8.1 10.00 Mostly Cloudy -- 55.0 41.0 59% 53 NA 30.32 M
9:55 am CST NE 9.2 G 17.3 10.00 Partly Cloudy -- 55.0 41.0 59% 52 NA 30.32 M
8:55 am CST N 9.2 10.00 Partly Cloudy -- 52.0 42.8 72% 49 NA 30.30 M
7:55 am CST N 6.9 10.00 Fair -- 48.0 42.8 82% 45 NA 30.27 M
7:35 am CST N 6.9 10.00 Partly Cloudy -- 46.0 42.8 87% 42 NA 30.27 M
6:55 am CST N 8.1 10.00 Fair -- 46.0 42.8 87% 42 NA 30.25 M
6:35 am CST N 10.4 10.00 Fair -- 46.0 42.8 87% 41 NA 30.25 M
5:55 am CST N 12.7 G 21.9 10.00 Fair -- 46.0 42.8 87% 40 NA 30.22 M

Regional Weather Observation

San Antonio, San Antonio International Airport, TX (KSAT)

A Few Clouds
55.0 F

Castroville Municipal Airport, TX (KCVB)

Fair
55.0 F

San Antonio - Kelly Field, TX (KSKF)

Fair
56.0 F

San Antonio, Stinson Municipal Airport, TX (KSSF)

Fair
55.0 F

Randolph Air Force Base, TX (KRND)

Fair
53.0 F

New Braunfels Regional Airport, TX (KBAZ)

Fair
51.0 F
Advertise Here

Advertise Here